timestamp,surface_pressure_avg,surface_temp_avg,battery_voltage,lat,long
2019-02-01 00:00:00+00:00,254.9381,0.6,12.97,47.84626,-54.09684
2019-02-01 00:10:00+00:00,245.2898,0.6,12.97,47.84626,-54.09684
2019-02-01 00:20:00+00:00,244.8181,0.6,13.05,47.84626,-54.09684
2019-02-01 00:30:00+00:00,247.6714,0.6,13.05,47.84626,-54.09684
2019-02-01 00:40:00+00:00,241.833,0.59,13.05,47.84626,-54.09684
2019-02-01 00:50:00+00:00,236.1365,0.58,13.05,47.84626,-54.09684
2019-02-01 01:00:00+00:00,231.8997,0.59,12.97,47.84626,-54.09684
2019-02-01 01:10:00+00:00,226.7931,0.59,12.89,47.84626,-54.09684
2019-02-01 01:20:00+00:00,221.9064,0.58,12.97,47.84626,-54.09684
2019-02-01 01:30:00+00:00,222.7448,0.58,12.97,47.84626,-54.09684
2019-02-01 01:40:00+00:00,216.6831,0.5,13.05,47.84626,-54.09684
2019-02-01 01:50:00+00:00,213.5031,0.5,13.05,47.84626,-54.09684
2019-02-01 02:00:00+00:00,214.3764,0.5,12.97,47.84626,-54.09684
2019-02-01 02:10:00+00:00,214.0364,0.5,12.89,47.84626,-54.09684
2019-02-01 02:20:00+00:00,210.5515,0.5,12.97,47.84626,-54.09684
2019-02-01 02:30:00+00:00,207.5731,0.49,12.97,47.84626,-54.09684
2019-02-01 02:40:00+00:00,210.4648,0.47,12.97,47.84626,-54.09684
2019-02-01 02:50:00+00:00,211.6198,0.49,13.05,47.84626,-54.09684
2019-02-01 03:00:00+00:00,205.4247,0.46,12.97,47.84626,-54.09684
2019-02-01 03:10:00+00:00,204.1848,0.4,12.89,47.84626,-54.09684
2019-02-01 03:20:00+00:00,208.3481,0.4,12.97,47.84626,-54.09684
2019-02-01 03:30:00+00:00,210.0198,0.4,12.97,47.84626,-54.09684
2019-02-01 03:40:00+00:00,211.3281,0.4,12.97,47.84626,-54.09684
2019-02-01 03:50:00+00:00,216.4214,0.4,12.97,47.84626,-54.09684
2019-02-01 04:00:00+00:00,213.6665,0.36,12.89,47.84626,-54.09684
2019-02-01 04:10:00+00:00,207.8781,0.37,12.81,47.84626,-54.09684
2019-02-01 04:20:00+00:00,206.7731,0.38,12.97,47.84626,-54.09684
2019-02-01 04:30:00+00:00,210.7432,0.39,12.97,47.84626,-54.09684
2019-02-01 04:40:00+00:00,211.2081,0.39,12.97,47.84626,-54.09684
2019-02-01 04:50:00+00:00,212.0965,0.37,12.97,47.84626,-54.09684
2019-02-01 05:00:00+00:00,215.188,0.34,12.89,47.84626,-54.09684
2019-02-01 05:10:00+00:00,217.3848,0.34,12.81,47.84626,-54.09684
2019-02-01 05:20:00+00:00,222.3215,0.3,12.97,47.84626,-54.09684
2019-02-01 05:30:00+00:00,224.6781,0.32,12.97,47.84626,-54.09684
2019-02-01 05:40:00+00:00,224.7097,0.35,12.97,47.84626,-54.09684
2019-02-01 05:50:00+00:00,239.4931,0.37,12.97,47.84626,-54.09684
2019-02-01 06:00:00+00:00,252.4865,0.39,12.89,47.84626,-54.09684
2019-02-01 06:10:00+00:00,248.9097,0.4,12.81,47.84626,-54.09684
2019-02-01 06:20:00+00:00,252.3214,0.4,12.89,47.84626,-54.09684
2019-02-01 06:30:00+00:00,273.4997,0.4,12.89,47.84626,-54.09684
2019-02-01 06:40:00+00:00,282.1464,0.4,12.97,47.84626,-54.09684
2019-02-01 06:50:00+00:00,276.4714,0.4,12.97,47.84626,-54.09684
2019-02-01 07:00:00+00:00,287.3763,0.4,12.89,47.84626,-54.09684
2019-02-01 07:10:00+00:00,305.428,0.4,12.81,47.84626,-54.09684
2019-02-01 07:20:00+00:00,304.368,0.3,12.89,47.84626,-54.09684
2019-02-01 07:30:00+00:00,304.0997,0.28,12.89,47.84626,-54.09684
2019-02-01 07:40:00+00:00,319.708,0.22,12.97,47.84626,-54.09684
2019-02-01 07:50:00+00:00,327.2764,0.2,12.97,47.84626,-54.09684
2019-02-01 08:00:00+00:00,324.133,0.2,12.81,47.84626,-54.09684
2019-02-01 08:10:00+00:00,332.0846,0.2,12.81,47.84626,-54.09684
2019-02-01 08:20:00+00:00,344.4696,0.2,12.89,47.84626,-54.09684
2019-02-01 08:30:00+00:00,341.6946,0.17,12.89,47.84626,-54.09684
2019-02-01 08:40:00+00:00,339.053,0.19,12.89,47.84626,-54.09684
2019-02-01 08:50:00+00:00,342.1862,0.2,12.97,47.84626,-54.09684
2019-02-01 09:00:00+00:00,341.9313,0.16,12.81,47.84626,-54.09684
2019-02-01 09:10:00+00:00,335.0997,0.13,12.81,47.84626,-54.09684
2019-02-01 09:20:00+00:00,339.4163,0.1,12.89,47.84626,-54.09684
2019-02-01 09:30:00+00:00,340.7413,0.1,12.89,47.84626,-54.09684
2019-02-01 09:40:00+00:00,340.043,0.04,12.89,47.84626,-54.09684
2019-02-01 09:50:00+00:00,344.5379,0.03,12.89,47.84626,-54.09684
2019-02-01 10:00:00+00:00,348.0229,0.14,12.81,47.84626,-54.09684
2019-02-01 10:10:00+00:00,346.4963,0.6,12.73,47.84626,-54.09684
2019-02-01 10:20:00+00:00,342.0197,0.6,12.89,47.84626,-54.09684
2019-02-01 10:30:00+00:00,342.6063,0.6,12.89,47.84626,-54.09684
2019-02-01 10:40:00+00:00,341.7929,0.6,12.89,47.84626,-54.09684
2019-02-01 10:50:00+00:00,324.9446,0.59,12.89,47.84626,-54.09684
2019-02-01 11:00:00+00:00,319.158,0.55,12.81,47.84626,-54.09684
2019-02-01 11:10:00+00:00,322.8947,0.51,12.73,47.84626,-54.09684
2019-02-01 11:20:00+00:00,321.8063,0.5,12.81,47.84626,-54.09684
2019-02-01 11:30:00+00:00,315.4396,0.5,12.89,47.84626,-54.09684
2019-02-01 11:40:00+00:00,314.6946,0.5,12.89,47.84626,-54.09684
2019-02-01 11:50:00+00:00,310.6963,0.5,12.97,47.84626,-54.09684
2019-02-01 12:00:00+00:00,298.913,0.44,12.89,47.84626,-54.09684
2019-02-01 12:10:00+00:00,296.468,0.4,12.81,47.84626,-54.09684
2019-02-01 12:20:00+00:00,292.0646,0.4,12.89,47.84626,-54.09684
2019-02-01 12:30:00+00:00,283.5814,0.39,12.89,47.84626,-54.09684
2019-02-01 12:40:00+00:00,278.2448,0.48,12.89,47.84626,-54.09684
2019-02-01 12:50:00+00:00,277.7181,0.2,12.97,47.84626,-54.09684
2019-02-01 13:00:00+00:00,273.8331,0.1,12.89,47.84626,-54.09684
2019-02-01 13:10:00+00:00,270.9714,0.26,12.81,47.84626,-54.09684
2019-02-01 13:20:00+00:00,266.7881,0.34,12.97,47.84626,-54.09684
2019-02-01 13:30:00+00:00,259.3331,0.3,12.97,47.84626,-54.09684
2019-02-01 13:40:00+00:00,252.9981,0.2,13.05,47.84626,-54.09684
2019-02-01 13:50:00+00:00,252.9781,0.1,13.13,47.84626,-54.09684
2019-02-01 14:00:00+00:00,250.5731,0.1,13.05,47.84626,-54.09684
2019-02-01 14:10:00+00:00,246.8798,0.09,12.97,47.84626,-54.09684
2019-02-01 14:20:00+00:00,241.6981,0.05,13.05,47.84626,-54.09684
2019-02-01 14:30:00+00:00,238.6714,0.0,13.21,47.84626,-54.09684
2019-02-01 14:40:00+00:00,239.2648,0.07,13.29,47.84626,-54.09684
2019-02-01 14:50:00+00:00,238.5631,0.1,13.44,47.84626,-54.09684
2019-02-01 15:00:00+00:00,230.3464,0.1,13.44,47.84626,-54.09684
2019-02-01 15:10:00+00:00,225.0564,0.09,13.29,47.84626,-54.09684
2019-02-01 15:20:00+00:00,227.7215,0.1,13.29,47.84626,-54.09684
2019-02-01 15:30:00+00:00,228.6431,0.1,13.29,47.84626,-54.09684
2019-02-01 15:40:00+00:00,229.6381,0.08,13.37,47.84626,-54.09684
2019-02-01 15:50:00+00:00,231.9397,0.0,13.37,47.84626,-54.09684
2019-02-01 16:00:00+00:00,230.1848,0.0,13.29,47.84626,-54.09684
2019-02-01 16:10:00+00:00,227.1364,0.0,13.13,47.84626,-54.09684
2019-02-01 16:20:00+00:00,228.2947,0.0,13.29,47.84626,-54.09684
2019-02-01 16:30:00+00:00,230.2764,0.0,13.44,47.84626,-54.09684
2019-02-01 16:40:00+00:00,225.2381,-0.0,13.44,47.84626,-54.09684
2019-02-01 16:50:00+00:00,221.8114,-0.07,14.08,47.84626,-54.09684
2019-02-01 17:00:00+00:00,220.2398,-0.1,13.92,47.84626,-54.09684
2019-02-01 17:10:00+00:00,220.1081,-0.1,13.84,47.84626,-54.09684
2019-02-01 17:20:00+00:00,222.3364,-0.1,14.0,47.84626,-54.09684
2019-02-01 17:30:00+00:00,224.1564,-0.1,14.16,47.84626,-54.09684
2019-02-01 17:40:00+00:00,227.7048,-0.1,14.24,47.84626,-54.09684
2019-02-01 17:50:00+00:00,229.5114,-0.1,14.16,47.84626,-54.09684
2019-02-01 18:00:00+00:00,230.888,-0.02,14.0,47.84626,-54.09684
2019-02-01 18:10:00+00:00,234.2281,0.0,13.84,47.84626,-54.09684
2019-02-01 18:20:00+00:00,236.3964,0.1,13.84,47.84626,-54.09684
2019-02-01 18:30:00+00:00,239.2281,0.2,13.84,47.84626,-54.09684
2019-02-01 18:40:00+00:00,244.5131,0.29,15.04,47.84626,-54.09684
2019-02-01 18:50:00+00:00,248.5281,0.28,14.24,47.84626,-54.09684
2019-02-01 19:00:00+00:00,252.3798,0.2,14.16,47.84626,-54.09684
2019-02-01 19:10:00+00:00,261.5597,0.2,14.0,47.84626,-54.09684
2019-02-01 19:20:00+00:00,270.3897,0.2,14.0,47.84626,-54.09684
2019-02-01 19:30:00+00:00,277.5031,0.2,13.92,47.84626,-54.09684
2019-02-01 19:40:00+00:00,281.9297,0.3,13.92,47.84626,-54.09684
2019-02-01 19:50:00+00:00,287.4347,0.37,13.92,47.84626,-54.09684
2019-02-01 20:00:00+00:00,295.713,0.39,13.68,47.84626,-54.09684
2019-02-01 20:10:00+00:00,300.7414,0.4,13.53,47.84626,-54.09684
2019-02-01 20:20:00+00:00,301.083,0.4,13.53,47.84626,-54.09684
2019-02-01 20:30:00+00:00,305.848,0.4,13.44,47.84626,-54.09684
2019-02-01 20:40:00+00:00,311.6497,0.4,13.37,47.84626,-54.09684
2019-02-01 20:50:00+00:00,313.2614,0.39,13.37,47.84626,-54.09684
2019-02-01 21:00:00+00:00,311.7447,0.3,13.21,47.84626,-54.09684
2019-02-01 21:10:00+00:00,316.2447,0.3,13.05,47.84626,-54.09684
2019-02-01 21:20:00+00:00,320.2114,0.2,13.13,47.84626,-54.09684
2019-02-01 21:30:00+00:00,321.1896,0.1,13.13,47.84626,-54.09684
2019-02-01 21:40:00+00:00,321.0346,0.1,13.13,47.84626,-54.09684
2019-02-01 21:50:00+00:00,323.8762,0.05,13.13,47.84626,-54.09684
2019-02-01 22:00:00+00:00,326.4346,0.0,13.05,47.84626,-54.09684
2019-02-01 22:10:00+00:00,326.0181,0.0,12.97,47.84626,-54.09684
2019-02-01 22:20:00+00:00,329.9446,0.0,13.05,47.84626,-54.09684
2019-02-01 22:30:00+00:00,333.1114,0.0,13.05,47.84626,-54.09684
2019-02-01 22:40:00+00:00,330.4646,0.0,13.05,47.84626,-54.09684
2019-02-01 22:50:00+00:00,329.8331,0.1,13.05,47.84626,-54.09684
2019-02-01 23:00:00+00:00,329.3896,0.18,12.97,47.84626,-54.09684
2019-02-01 23:10:00+00:00,328.7396,0.21,12.89,47.84626,-54.09684
2019-02-01 23:20:00+00:00,328.158,0.3,12.97,47.84626,-54.09684
2019-02-01 23:30:00+00:00,327.0963,0.35,12.97,47.84626,-54.09684
2019-02-01 23:40:00+00:00,318.9214,0.38,12.97,47.84626,-54.09684
2019-02-01 23:50:00+00:00,311.928,0.4,12.97,47.84626,-54.09684
